AAL2727 KSAN-KPHX

Flight info

Callsign AAL2727
Flight time 0h 51m
Altitude 33000
Route ZZOOO4 HOGGZ HYDRR1
Aircraft A320/M-SDE3FGHIRWY/LB1

Departure

Time 2026-05-05 02:54
Airport San Diego International Airport (KSAN)

Arrival

Time 2026-05-05 03:46
Airport Phoenix Sky Harbor International Airport (KPHX)
Time Latitude Longitude Altitude Speed Heading
2026-05-05 02:26 32.73376 -117.20211 26 ft 0 kts 140°
2026-05-05 02:45 32.73386 -117.20221 23 ft 3 kts 135°
2026-05-05 02:46 32.73400 -117.20240 25 ft 3 kts 117°
2026-05-05 02:46 32.73406 -117.20261 25 ft 3 kts 79°
2026-05-05 02:46 32.73400 -117.20276 25 ft 2 kts 16°
2026-05-05 02:46 32.73394 -117.20278 26 ft 0 kts 15°
2026-05-05 02:49 32.73395 -117.20278 27 ft 1 kts 15°
2026-05-05 02:49 32.73449 -117.20260 23 ft 13 kts 15°
2026-05-05 02:49 32.73532 -117.20220 23 ft 12 kts 45°
2026-05-05 02:50 32.73531 -117.20117 24 ft 14 kts 105°
2026-05-05 02:50 32.73497 -117.19974 24 ft 23 kts 106°
2026-05-05 02:50 32.73448 -117.19773 23 ft 27 kts 106°
2026-05-05 02:50 32.73395 -117.19551 23 ft 29 kts 106°
2026-05-05 02:51 32.73346 -117.19352 25 ft 21 kts 106°
2026-05-05 02:51 32.73303 -117.19173 22 ft 23 kts 106°
2026-05-05 02:51 32.73256 -117.18980 25 ft 25 kts 106°
2026-05-05 02:51 32.73206 -117.18770 25 ft 27 kts 106°
2026-05-05 02:52 32.73150 -117.18543 20 ft 30 kts 106°
2026-05-05 02:52 32.73089 -117.18295 20 ft 32 kts 106°
2026-05-05 02:52 32.73047 -117.18120 20 ft 21 kts 106°
2026-05-05 02:52 32.73006 -117.17949 20 ft 21 kts 105°
2026-05-05 02:53 32.72967 -117.17796 21 ft 19 kts 107°
2026-05-05 02:53 32.72957 -117.17670 19 ft 15 kts 75°
2026-05-05 02:53 32.73029 -117.17634 20 ft 15 kts 303°
2026-05-05 02:53 32.73044 -117.17680 20 ft 0 kts 285°
2026-05-05 02:54 32.73070 -117.17790 19 ft 45 kts 285°
2026-05-05 02:54 32.73220 -117.18412 22 ft 108 kts 286°
2026-05-05 02:54 32.73470 -117.19432 122 ft 143 kts 285°
2026-05-05 02:54 32.73739 -117.20576 728 ft 145 kts 284°
2026-05-05 02:55 32.74017 -117.21726 1343 ft 145 kts 283°
2026-05-05 02:55 32.74298 -117.22889 1859 ft 152 kts 283°
2026-05-05 02:55 32.74608 -117.24180 2099 ft 174 kts 283°
2026-05-05 02:55 32.74961 -117.25654 2364 ft 198 kts 283°
2026-05-05 02:56 32.75363 -117.27327 2671 ft 222 kts 284°
2026-05-05 02:56 32.75800 -117.29126 3439 ft 229 kts 284°
2026-05-05 02:56 32.76245 -117.30949 4371 ft 230 kts 285°
2026-05-05 02:56 32.76532 -117.32825 5246 ft 234 kts 264°
2026-05-05 02:57 32.75887 -117.34578 6069 ft 240 kts 227°
2026-05-05 02:57 32.74406 -117.35513 6904 ft 251 kts 191°
2026-05-05 02:57 32.72671 -117.35193 7748 ft 262 kts 155°
2026-05-05 02:57 32.71165 -117.33927 8622 ft 269 kts 142°
2026-05-05 02:58 32.69798 -117.32386 9491 ft 273 kts 138°
2026-05-05 02:58 32.68462 -117.30757 10282 ft 277 kts 138°
2026-05-05 02:58 32.67109 -117.29117 11036 ft 279 kts 140°
2026-05-05 02:58 32.65737 -117.27508 11797 ft 282 kts 141°
2026-05-05 02:59 32.64352 -117.25836 12546 ft 288 kts 133°
2026-05-05 02:59 32.63314 -117.23756 13267 ft 301 kts 116°
2026-05-05 02:59 32.62787 -117.21242 13508 ft 330 kts 100°
2026-05-05 02:59 32.62532 -117.18439 13703 ft 353 kts 99°
2026-05-05 03:00 32.62268 -117.15451 13831 ft 376 kts 99°
2026-05-05 03:00 32.62070 -117.12290 14164 ft 392 kts 92°
2026-05-05 03:00 32.62426 -117.09043 14712 ft 402 kts 77°
2026-05-05 03:00 32.63355 -117.05890 15306 ft 408 kts 70°
2026-05-05 03:01 32.64396 -117.02736 15898 ft 411 kts 70°
2026-05-05 03:01 32.65436 -116.99565 16490 ft 415 kts 70°
2026-05-05 03:01 32.66317 -116.96295 17073 ft 417 kts 80°
2026-05-05 03:01 32.66706 -116.92887 17677 ft 417 kts 91°
2026-05-05 03:02 32.66780 -116.89436 18292 ft 420 kts 92°
2026-05-05 03:02 32.66853 -116.85958 18811 ft 424 kts 92°
2026-05-05 03:02 32.66933 -116.82439 19345 ft 429 kts 92°
2026-05-05 03:02 32.67018 -116.78883 19879 ft 434 kts 92°
2026-05-05 03:03 32.67103 -116.75336 20406 ft 438 kts 93°
2026-05-05 03:03 32.67141 -116.71705 20892 ft 442 kts 95°
2026-05-05 03:03 32.67106 -116.68042 21395 ft 446 kts 96°
2026-05-05 03:03 32.67024 -116.64344 21894 ft 450 kts 97°
2026-05-05 03:04 32.66925 -116.60612 22371 ft 455 kts 97°
2026-05-05 03:04 32.66828 -116.56843 22835 ft 458 kts 97°
2026-05-05 03:04 32.66744 -116.53038 23253 ft 463 kts 98°
2026-05-05 03:04 32.66672 -116.49207 23685 ft 467 kts 98°
2026-05-05 03:05 32.66607 -116.45332 24065 ft 471 kts 98°
2026-05-05 03:05 32.66662 -116.41413 24430 ft 481 kts 91°
2026-05-05 03:05 32.67029 -116.37444 24774 ft 486 kts 90°
2026-05-05 03:05 32.67403 -116.33441 25123 ft 490 kts 90°
2026-05-05 03:06 32.67774 -116.29404 25459 ft 494 kts 90°
2026-05-05 03:06 32.68143 -116.25342 25781 ft 498 kts 90°
2026-05-05 03:06 32.68513 -116.21241 26098 ft 502 kts 91°
2026-05-05 03:06 32.68883 -116.17105 26431 ft 506 kts 91°
2026-05-05 03:07 32.69256 -116.12940 26732 ft 509 kts 91°
2026-05-05 03:07 32.69627 -116.08748 27016 ft 513 kts 91°
2026-05-05 03:07 32.69999 -116.04513 27358 ft 516 kts 91°
2026-05-05 03:07 32.70369 -116.00315 27628 ft 519 kts 92°
2026-05-05 03:08 32.70757 -115.96029 27923 ft 523 kts 91°
2026-05-05 03:08 32.71157 -115.91711 28162 ft 529 kts 91°
2026-05-05 03:08 32.71562 -115.87356 28408 ft 534 kts 91°
2026-05-05 03:08 32.71974 -115.82955 28690 ft 538 kts 92°
2026-05-05 03:09 32.72389 -115.78527 28982 ft 541 kts 92°
2026-05-05 03:09 32.72800 -115.74079 29274 ft 544 kts 92°
2026-05-05 03:09 32.73207 -115.69589 29522 ft 547 kts 92°
2026-05-05 03:09 32.73476 -115.66604 29756 ft 549 kts 93°
2026-05-05 03:10 32.73882 -115.62097 30089 ft 550 kts 93°
2026-05-05 03:10 32.74288 -115.57580 30459 ft 549 kts 93°
2026-05-05 03:10 32.74821 -115.51610 30998 ft 547 kts 94°
2026-05-05 03:10 32.75140 -115.47129 31405 ft 543 kts 96°
2026-05-05 03:11 32.75279 -115.44110 31683 ft 540 kts 97°
2026-05-05 03:11 32.75386 -115.39668 32102 ft 537 kts 99°
2026-05-05 03:11 32.75419 -115.35244 32517 ft 534 kts 100°
2026-05-05 03:11 32.75429 -115.30887 32815 ft 535 kts 101°
2026-05-05 03:12 32.75451 -115.26474 32917 ft 537 kts 100°
2026-05-05 03:12 32.75598 -115.17571 32924 ft 540 kts 99°
2026-05-05 03:13 32.75839 -115.08642 32920 ft 540 kts 98°
2026-05-05 03:13 32.76075 -114.99723 32885 ft 539 kts 99°
2026-05-05 03:14 32.76257 -114.90824 32908 ft 538 kts 99°
2026-05-05 03:14 32.76408 -114.81980 32906 ft 539 kts 99°
2026-05-05 03:15 32.76570 -114.73085 32925 ft 539 kts 99°
2026-05-05 03:15 32.76743 -114.64177 32934 ft 539 kts 99°
2026-05-05 03:16 32.76899 -114.55279 32935 ft 539 kts 99°
2026-05-05 03:16 32.77020 -114.46372 32923 ft 539 kts 100°
2026-05-05 03:17 32.77132 -114.37472 32910 ft 539 kts 100°
2026-05-05 03:17 32.77242 -114.28579 32832 ft 538 kts 99°
2026-05-05 03:18 32.77343 -114.19682 32862 ft 538 kts 100°
2026-05-05 03:18 32.77436 -114.10836 32878 ft 538 kts 99°
2026-05-05 03:19 32.78528 -113.97378 32879 ft 550 kts 91°
2026-05-05 03:19 32.79033 -113.92877 32768 ft 549 kts 91°
2026-05-05 03:19 32.79535 -113.88365 31592 ft 555 kts 91°
2026-05-05 03:20 32.80033 -113.83812 30189 ft 555 kts 90°
2026-05-05 03:20 32.80528 -113.79257 29114 ft 553 kts 90°
2026-05-05 03:20 32.81125 -113.74765 28437 ft 552 kts 83°
2026-05-05 03:20 32.82267 -113.70461 27827 ft 553 kts 71°
2026-05-05 03:21 32.83998 -113.66427 27679 ft 541 kts 60°
2026-05-05 03:21 32.86145 -113.62828 27311 ft 528 kts 51°
2026-05-05 03:21 32.88523 -113.59556 26422 ft 518 kts 49°
2026-05-05 03:21 32.90886 -113.56367 25625 ft 508 kts 49°
2026-05-05 03:22 32.93227 -113.53233 25121 ft 503 kts 49°
2026-05-05 03:22 32.95541 -113.50141 24718 ft 498 kts 48°
2026-05-05 03:22 32.97843 -113.47056 24207 ft 497 kts 48°
2026-05-05 03:22 33.00103 -113.44016 23772 ft 492 kts 48°
2026-05-05 03:23 33.02347 -113.40987 22945 ft 484 kts 49°
2026-05-05 03:23 33.04543 -113.38012 22198 ft 473 kts 48°
2026-05-05 03:23 33.06688 -113.35100 21576 ft 465 kts 48°
2026-05-05 03:23 33.08808 -113.32227 21292 ft 457 kts 48°
2026-05-05 03:24 33.10897 -113.29397 20944 ft 451 kts 47°
2026-05-05 03:24 33.12960 -113.26606 20646 ft 444 kts 47°
2026-05-05 03:24 33.14995 -113.23854 20433 ft 440 kts 47°
2026-05-05 03:24 33.17015 -113.21123 20252 ft 438 kts 47°
2026-05-05 03:25 33.19018 -113.18406 19957 ft 434 kts 47°
2026-05-05 03:25 33.21001 -113.15712 19675 ft 430 kts 47°
2026-05-05 03:25 33.22966 -113.13044 19394 ft 426 kts 47°
2026-05-05 03:25 33.24846 -113.10329 19100 ft 422 kts 54°
2026-05-05 03:26 33.26276 -113.07314 18929 ft 412 kts 66°
2026-05-05 03:26 33.27183 -113.04157 18670 ft 403 kts 78°
2026-05-05 03:26 33.27583 -113.00882 18455 ft 393 kts 90°
2026-05-05 03:26 33.27659 -112.97622 18214 ft 392 kts 90°
2026-05-05 03:27 33.27738 -112.94379 17903 ft 389 kts 90°
2026-05-05 03:27 33.27821 -112.91157 17629 ft 387 kts 90°
2026-05-05 03:27 33.27902 -112.87956 17351 ft 385 kts 90°
2026-05-05 03:27 33.27983 -112.84770 17098 ft 379 kts 90°
2026-05-05 03:28 33.28072 -112.81673 16953 ft 369 kts 89°
2026-05-05 03:28 33.28263 -112.78638 16648 ft 364 kts 86°
2026-05-05 03:28 33.28541 -112.75642 16262 ft 363 kts 85°
2026-05-05 03:28 33.28857 -112.72660 15909 ft 360 kts 85°
2026-05-05 03:29 33.29175 -112.69706 15566 ft 357 kts 85°
2026-05-05 03:29 33.29483 -112.66771 15222 ft 354 kts 85°
2026-05-05 03:29 33.29776 -112.63863 14897 ft 351 kts 86°
2026-05-05 03:29 33.30051 -112.61013 14593 ft 348 kts 86°
2026-05-05 03:30 33.30318 -112.58151 14233 ft 346 kts 86°
2026-05-05 03:30 33.30579 -112.55312 13959 ft 342 kts 86°
2026-05-05 03:30 33.30836 -112.52482 13568 ft 341 kts 86°
2026-05-05 03:30 33.31089 -112.49687 13258 ft 336 kts 86°
2026-05-05 03:31 33.31343 -112.46901 12878 ft 335 kts 86°
2026-05-05 03:31 33.31594 -112.44146 12537 ft 333 kts 86°
2026-05-05 03:31 33.31841 -112.41406 12202 ft 330 kts 86°
2026-05-05 03:31 33.32084 -112.38723 11888 ft 327 kts 86°
2026-05-05 03:32 33.32331 -112.36031 11571 ft 324 kts 86°
2026-05-05 03:32 33.32581 -112.33328 11253 ft 322 kts 86°
2026-05-05 03:32 33.32821 -112.30716 10946 ft 319 kts 86°
2026-05-05 03:32 33.33064 -112.28056 10633 ft 316 kts 86°
2026-05-05 03:33 33.33298 -112.25485 10332 ft 314 kts 86°
2026-05-05 03:33 33.33534 -112.22902 10023 ft 312 kts 86°
2026-05-05 03:33 33.33767 -112.20330 9710 ft 310 kts 86°
2026-05-05 03:33 33.33999 -112.17779 9411 ft 307 kts 86°
2026-05-05 03:34 33.34222 -112.15286 9319 ft 296 kts 86°
2026-05-05 03:34 33.34439 -112.12867 9186 ft 287 kts 86°
2026-05-05 03:34 33.34650 -112.10531 9072 ft 278 kts 86°
2026-05-05 03:34 33.34755 -112.08266 8905 ft 269 kts 94°
2026-05-05 03:35 33.34727 -112.06022 8595 ft 269 kts 94°
2026-05-05 03:35 33.34697 -112.03794 8310 ft 267 kts 94°
2026-05-05 03:35 33.34667 -112.01583 8032 ft 265 kts 94°
2026-05-05 03:35 33.34638 -111.99385 7752 ft 264 kts 94°
2026-05-05 03:36 33.34610 -111.97200 7473 ft 262 kts 94°
2026-05-05 03:36 33.34583 -111.95028 7197 ft 260 kts 95°
2026-05-05 03:36 33.34628 -111.92905 7021 ft 257 kts 81°
2026-05-05 03:36 33.35294 -111.90977 7007 ft 246 kts 66°
2026-05-05 03:37 33.35950 -111.89124 7029 ft 240 kts 73°
2026-05-05 03:37 33.36478 -111.87229 7032 ft 239 kts 76°
2026-05-05 03:37 33.36967 -111.85327 7033 ft 240 kts 76°
2026-05-05 03:37 33.37455 -111.83424 7032 ft 239 kts 76°
2026-05-05 03:38 33.37949 -111.81525 7029 ft 239 kts 76°
2026-05-05 03:38 33.38449 -111.79627 7038 ft 239 kts 76°
2026-05-05 03:38 33.38959 -111.77729 7035 ft 240 kts 75°
2026-05-05 03:38 33.39474 -111.75829 7036 ft 240 kts 75°
2026-05-05 03:39 33.39991 -111.73927 7038 ft 240 kts 75°
2026-05-05 03:39 33.40509 -111.72029 7036 ft 240 kts 75°
2026-05-05 03:39 33.41029 -111.70130 7036 ft 240 kts 75°
2026-05-05 03:39 33.41558 -111.68231 7035 ft 241 kts 71°
2026-05-05 03:40 33.42559 -111.66650 7031 ft 244 kts 32°
2026-05-05 03:40 33.44164 -111.66137 7037 ft 242 kts 351°
2026-05-05 03:40 33.45648 -111.66921 7036 ft 232 kts 309°
2026-05-05 03:40 33.46366 -111.68569 7037 ft 222 kts 272°
2026-05-05 03:41 33.46179 -111.70342 7036 ft 214 kts 240°
2026-05-05 03:41 33.45295 -111.71739 7030 ft 211 kts 227°
2026-05-05 03:41 33.44409 -111.73146 6771 ft 219 kts 238°
2026-05-05 03:41 33.43964 -111.74920 6196 ft 229 kts 262°
2026-05-05 03:42 33.44001 -111.76855 5581 ft 235 kts 269°
2026-05-05 03:42 33.44034 -111.78831 4960 ft 239 kts 268°
2026-05-05 03:42 33.44041 -111.80848 4322 ft 244 kts 268°
2026-05-05 03:42 33.44046 -111.82879 3806 ft 242 kts 268°
2026-05-05 03:43 33.44052 -111.84811 3470 ft 221 kts 268°
2026-05-05 03:43 33.44057 -111.86575 3185 ft 206 kts 269°
2026-05-05 03:43 33.44061 -111.88229 2934 ft 191 kts 269°
2026-05-05 03:43 33.44064 -111.89759 2684 ft 174 kts 270°
2026-05-05 03:44 33.44067 -111.91103 2459 ft 151 kts 269°
2026-05-05 03:44 33.44070 -111.92340 2270 ft 144 kts 269°
2026-05-05 03:44 33.44072 -111.93505 2096 ft 141 kts 270°
2026-05-05 03:44 33.44074 -111.94674 1927 ft 140 kts 269°
2026-05-05 03:45 33.44076 -111.95828 1740 ft 137 kts 270°
2026-05-05 03:45 33.44079 -111.96969 1570 ft 138 kts 271°
2026-05-05 03:45 33.44080 -111.98110 1380 ft 135 kts 269°
2026-05-05 03:45 33.44078 -111.99233 1187 ft 134 kts 269°
2026-05-05 03:46 33.44081 -112.00250 1131 ft 104 kts 270°
2026-05-05 03:46 33.44082 -112.00911 1129 ft 55 kts 270°
2026-05-05 03:46 33.44083 -112.01225 1131 ft 21 kts 268°
2026-05-05 03:46 33.44052 -112.01339 1132 ft 13 kts 224°
2026-05-05 03:47 33.43985 -112.01339 1122 ft 12 kts 131°
2026-05-05 03:47 33.43975 -112.01233 1121 ft 14 kts 90°
2026-05-05 03:47 33.43974 -112.01105 1124 ft 16 kts 90°
2026-05-05 03:47 33.43974 -112.00959 1122 ft 19 kts 90°
2026-05-05 03:48 33.43975 -112.00794 1120 ft 21 kts 91°
2026-05-05 03:48 33.43974 -112.00622 1123 ft 15 kts 90°
2026-05-05 03:48 33.43974 -112.00486 1126 ft 18 kts 90°
2026-05-05 03:48 33.43974 -112.00331 1123 ft 20 kts 90°
2026-05-05 03:49 33.43973 -112.00164 1127 ft 17 kts 92°
2026-05-05 03:49 33.43943 -112.00078 1126 ft 12 kts 150°
2026-05-05 03:49 33.43905 -111.99988 1125 ft 14 kts 92°
2026-05-05 03:49 33.43903 -111.99880 1125 ft 10 kts 92°
2026-05-05 03:50 33.43902 -111.99809 1125 ft 5 kts 97°
2026-05-05 03:50 33.43870 -111.99784 1125 ft 7 kts 171°
2026-05-05 03:50 33.43820 -111.99789 1120 ft 6 kts 211°
2026-05-05 03:50 33.43796 -111.99837 1125 ft 7 kts 259°
2026-05-05 03:51 33.43794 -111.99867 1125 ft 3 kts 268°
2026-05-05 03:51 33.43794 -111.99880 1125 ft 0 kts 269°